Погода Остров Диксон

Погода Остров Диксон : погода сейчас, прогноз погоды и архив. Всё, что Вы хотите узнать о погоде Остров Диксон!

Хотите узнать прогноз погоды Остров Диксон? Тогда Вам сюда: Погода Остров Диксон

Поиск расширенной информации на нашем сайте:

Полезная информация: Сделать интернет магазин новости сайт здесь

Другие новости

Новости СМИ2

Главная страница сайта

Новости сайта

02.10.2013

Напоминаем, что на нашем новом сайте вы можете получить высокодетализированные прогнозы погоды по пунктам России, СНГ и мира (включающие важные для авиации метеовеличины, такие как направление и скорость ветра, видимость, явления погоды, количество и форма облачности, нижняя и верхняя граница облачности), а также ознакомиться с разнообразными материалами по авиационной метеорологии и подборкой полезных ссылок на эту тему.

Сайт Метеоцентр.Азия посвящён разработке технологий оптимизации авиаметеорологического обслуживания, включая проектирование и перспективное создание нескольких автоматизированных авиаметеорологических систем:
- система выпуска высокодетальных прогностических карт явлений погоды для нижнего воздушного пространства по России и ближнему зарубежью;
- система верификации прогнозов TAF (выпускаемых синоптиками официальных АМСГ РФ и ближнего зарубежья) и AUTOTAF (выпускаемых сайтом Метеоцентр.Азия) - выявление ошибок, онлайн-сопоставление с фактической погодой METAR, автоматическое внесение коррективов в прогнозы при резком отклонении фактической погоды от прогноза, подсчёт оправдываемости прогнозов по элементам и в целом;
- система обработки, анализа и отображения авиаметеорологической информации для применения провайдерами метеорологической информации.

Рекомендуем: Описание купить данабол у нас на сайте.

Погода Остров Диксон - сегодня

Время (UTC), дата Ветер
(°,м/с) 
Видим.   Явления Облачность Т
(°С)
Тd
(°С)
f(%) Тe
(°С)
Pmin
(гПа)
dP
(гПа)
Po
(мм)
O2
(г/м3)
Тmin Tmax R s Состояние
почвы
21 24.05.17 090 (В) 20000 м    9/9 330 м 
[Sc]
-7.9 -9.9 86 -12  1006.2  -0.3  750  312           
00 25.05.17 070 (В) 20000 м  позёмок  9/9 330 м 
[Sc]
-7.9 -9.3 90 -13  1005.3  -0.9  749  312  -8.1      33  неравномерный
сухой снег
100% 
03 25.05.17 070 (В) 20000 м  позёмок  9/9 360 м 
[Sc]
-7.9 -9.4 89 -13  1004.8  -0.5  749  312  -8.3         
06 25.05.17 060 (СВ) 20000 м  позёмок  9/9 330 м 
[Sc]
-6.5 -7.9 90 -12  1004.1  -0.7  749  310           
09 25.05.17 040 (СВ) 9-11{11}  20000 м  позёмок  10/10 360 м 
[Sc]
-5.9 -7.3 90 -12  1004.5  -0.2  749  309           
12 25.05.17 040 (СВ) 9-12{12}  20000 м  позёмок  9/9 330 м 
[Sc]
-5.2 -6.1 93 -11  1003.7  -0.2  748  308    -5.2       
15 25.05.17 040 (СВ) 7{12}  20000 м  позёмок  9/0 средняя, верхняя 
[Ac trans|Ci fib]
-6.1 -7.1 93 -11  1003.7  -0.1  748  309           
18 25.05.17 050 (СВ) н/о    н/о 
-6.9 -7.8 93 -12  1003.9  -0.4  748  310           
21 25.05.17 030 (СВ) 7{10}  20000 м  позёмок  9/0 средняя, верхняя 
[Ac trans|Ci fib]
-8.7 -9.8 92 -14  1003.3  748  312           
00 26.05.17 050 (СВ) 20000 м    9/9 400 м 
[Sc]
-7.7 -8.9 91 -12  1003.8  0.5  748  311  -8.7      32  неравномерный
сухой снег
100% 
03 26.05.17 030 (СВ) 7{10}  20000 м  позёмок  9/8 400 м средняя 
[Sc|Ac und]
-5.6 -6.8 91 -11  1004.1  0.3  749  309           
06 26.05.17 020 (С) 20000 м    10/8 420 м средняя 
[Sc|Ac und]
-5.3 -6.8 89 -9  1004.9  0.9  749  309           
09 26.05.17 030 (СВ) 20000 м    10/0 средняя 
[As op]
-4.4 -6.1 88 -8  1005.9  750  308           
12 26.05.17 030 (СВ) 20000 м    10/0 средняя, верхняя 
[Ac trans|Ci fib]
-3.9 -6.2 84 -6  1007.6  751  308    -3.8       
15 26.05.17 130 (ЮВ) 20000 м    10/0 средняя, верхняя 
[Ac trans|Cs]
-4.4 -6.9 83 -4  1007.4  0.5  751  308           
18 26.05.17 180 (Ю) 20000 м    9/0 средняя, верхняя 
[Ac trans|Ci fib]
-5.5 -8.1 82 -5  1007.9  0.5  752  310           
21 26.05.17 160 (Ю) 20000 м    9/9 360 м 
[Sc]
-8.1 -9.2 92 -10  1008.6  0.7  752  313           
03 27.05.17 170 (Ю) 20000 м    9/0 средняя 
[Ac und]
-4.4 -6.5 85 -8  1010.6  1.1  754  309           
06 27.05.17 180 (Ю) 20000 м    10/0 средняя 
[Ac und]
-3.6 -5.4 87 -8  1012.6  1.4  755  309           
09 27.05.17 190 (Ю) 20000 м    9/0 средняя 
[Ac und]
-2.8 -5.4 82 -6  1013.3  1.3  755  308           
15 27.05.17 210 (ЮЗ) 20000 м    10/0 средняя 
[Ac und]
-4.3 -6.8 83 -7  1016.4  1.1  757  311           
18 27.05.17 170 (Ю) 20000 м    10/0 средняя 
[Ac und]
-5.3 -8.5 78 -7  1016.8  758  312           
21 27.05.17 150 (ЮВ) 20000 м    10/0 средняя 
[Ac und]
-5.5 -7.4 86 -8  1017.4  0.6  759  313           
06 28.05.17 120 (ЮВ) 20000 м    8/4 300 м средняя 
[Sc|Ac trans]
-3.9 -6.9 80 -8  1017.3  -0.7  758  311           
09 28.05.17 110 (В) 20000 м  позёмок  4/0 средняя, верхняя 
[Ac trans|Ci fib]
-2.7 -5 84 -7  1017  -0.3  758  309           
Время (UTC), дата Ветер
(°,м/с) 
Видим.   Явления Облачность Т
(°С)
Тd
(°С)
f(%) Тe
(°С)
Pmin
(гПа)
dP
(гПа)
Po
(мм)
O2
(г/м3)
Тmin Tmax R s Состояние
почвы

Для получения пояснительной информации подведите курсор к названию столбца.

ПОГОДА Остров Диксон - архив

Всё, что Вы хотите узнать о погоде Остров Диксон - удобно и подробно!

Выберите нужную дату (начиная с 1 января 2015* года) и нажмите кнопку "Найти".
Будут отображены архивные сводки погоды по пункту Остров Диксон, начиная с указанной даты.


Отображать данные в формате CSV (для использования в таблицах Excel)


Внимание! Наш архив погоды предназначен исключительно для личного некоммерческого использования в познавательных целях. Если Вам необходимы официальные справки о состоянии погоды (для производственных, юридических, коммерческих и т.п. целей), обращайтесь в органы Росгидромета.

*Примечание: данная дата относится к архиву по метеостанциям СССР (Россия, СНГ, Балтия).
Архив по метеостанциям Зарубежной Европы и Азии (кроме Китая) хранится 10 дней, по другим регионам земного шара (Китай, Африка, Америка, Австралия, Океания) - 1 день.

Остров Диксон - район местоположения метеостанции


Название, широта, долгота, высота метеостанции:
Остров Диксон 73.5°ш. 80.4°д. 47 м над ур. моря [Российская Федерация]

Дополнительная информация

В oтличие oт бoльшинства пoгoдных сайтoв мы публикуем пoдрoбную метеoинфoрмацию в детальнoм прoфессиoнальнoм фoрмате.

Характеристики температуры и влажнoсти вoздуха измеряются на высoте 2 м в тени вдали oт зданий и деревьев.
Скoрoсть ветра измеряется на высoте 10 м (на урoвне рoста челoвека скoрoсть ветра ниже в 1.5-2 раза). Если метеoстанция нахoдится в гoрoде или в лесу, тo скoрoсть ветра занижена на 2-4 м/с пo сравнению с oткрытым местoм. Скoрoсть ветра над акватoриями крупных рек и oзёр, а также на вершинах хoлмoв на 2-5 м/с выше, чем в oбычных услoвиях.
Атмoсфернoе давление в разных тoчках местнoсти мoжет значительнo oтличаться oт давления на метеoстанции, в зависимoсти oт услoвий рельефа (при пoдъёме на 10 м давление пoнижается примернo на 1 мм рт.ст.).